Lexington Weather

Lexington, Massachusetts, USA

24°F
3/3/2021 3:50am 
  • Lexington Conditions: Overcast
  • Temperature: 24.1°F / -4.4°CWarmer 1.3°F than last hour.
  • Dew Point: 10.6°F 
  • Relative Humidity: 56%Decreased 3.0% since last hour.
  • Wind: Wind from SW SW 5 mph, 10-min avg: 2 mph, gust: 7 mph
  • Barometer: 29.85 inFalling 0.02  inHg/hr Falling Slowly
  • Visibility: 10 miles
  • Snow Today: 0.0 in
  •   

Regional Weather Roundup
for Boston / Norton, MA

        
000
ASUS41 KBOX 030305
RWRBOX

REGIONAL WEATHER ROUNDUP
NATIONAL WEATHER SERVICE BOSTON/NORTON MA
1000 PM EST TUE MAR 02 2021

NOTE:  "FAIR" INDICATES FEW OR NO CLOUDS BELOW 12,000 FEET WITH NO 
SIGNIFICANT WEATHER AND/OR OBSTRUCTIONS TO VISIBILITY.

MAZALL-030400-
EASTERN MASSACHUSETTS
  
CITY           SKY/WX    TMP DP  RH WIND       PRES   REMARKS
BOSTON         CLEAR     24  -3  30 W13       29.98F WCI  12          
BEVERLY        CLEAR     24  -3  30 W12       29.94F WCI  13          
LAWRENCE       CLEAR     23  -1  35 W14       29.95F WCI  11          
BEDFORD        CLEAR     23  -2  33 W10       29.95F WCI  12          
BLUE HILL        N/A     20  -1  40 W17G28    29.92F WCI   5          
NORWOOD        CLEAR     24  -2  32 W8        29.98F WCI  15          
MARSHFIELD     CLEAR     27  -2  28 VRB6G18   29.99S WCI  20          
PLYMOUTH       CLEAR     24  -2  32 W9        29.98F WCI  14          
TAUNTON        CLEAR     25  -3  29 W9        29.99F WCI  15          
NEW BEDFORD    CLEAR     26  -4  27 W14       29.99F WCI  14          
$$

MAZALL-030400-
CAPE COD AND THE ISLANDS
  
CITY           SKY/WX    TMP DP  RH WIND       PRES   REMARKS
FALMOUTH       CLEAR     25  -4  28 W15       29.99S WCI  12          
HYANNIS        CLEAR     26  -2  29 W10       29.96F WCI  16          
CHATHAM        CLEAR     26  -2  29 W10G21    29.98F WCI  16          
PROVINCETOWN   CLEAR     26   6  42 W21G26    29.98S WCI  12          
NANTUCKET        N/A    N/A N/A N/A MISG      30.00F                  
MARTHAS VNYRD  CLEAR     27   1  32 W13G23    30.00F WCI  16          
$$
 
MAZALL-030400-
CENTRAL AND WESTERN MASSACHUSETTS
  
CITY           SKY/WX    TMP DP  RH WIND       PRES   REMARKS
WORCESTER      CLEAR     20   0  41 W9        29.92F WCI   9          
FITCHBURG      CLEAR     21   2  43 W15G22    29.97S WCI   8          
ORANGE         CLEAR     21   2  43 W18G25    29.97F WCI   6          
SPRINGFIELD    PTCLDY    22   1  40 W13       30.00F WCI  10          
WESTFIELD      CLEAR     21   3  45 SW5       30.01F WCI  15          
NORTH ADAMS    CLOUDY    21   6  52 W12       30.01F WCI   9          
PITTSFIELD     CLOUDY    18   3  52 NW6       29.95F WCI  10          
$$
 
RIZALL-030400-
RHODE ISLAND
  
CITY           SKY/WX    TMP DP  RH WIND       PRES   REMARKS
PROVIDENCE     CLEAR     25  -3  29 W13       30.01F WCI  14          
NEWPORT        CLEAR     26  -1  31 W9G18     30.00F WCI  17          
BLOCK ISLAND   CLEAR     28   6  39 NW9G21    30.03F WCI  19          
SMITHFIELD     CLEAR     22   1  40 W10       29.97F WCI  11          
WESTERLY       CLEAR     25  -1  32 W5        30.02F WCI  19          
$$
 
CTZALL-030400-
CONNECTICUT
  
CITY           SKY/WX    TMP DP  RH WIND       PRES   REMARKS
BRADLEY INTL   PTCLDY    22   1  40 W5        30.03F WCI  16          
HARTFORD       CLEAR     26  -1  31 NW5       30.05F WCI  20          
BRIDGEPORT     CLEAR     28   3  34 W6        30.07F WCI  22          
DANBURY        CLEAR     25   3  38 S3        30.05F                  
GROTON         CLEAR     27   2  34 W9        30.02F WCI  18          
NEW HAVEN      CLEAR     29   5  36 W5        30.05F WCI  24          
CHESTER        FAIR      25   0  33 CALM      30.01F                  
MERIDEN        CLEAR     26   2  35 CALM      30.04F                  
WILLIMANTIC    CLEAR     24  -1  33 NW8       30.01F WCI  15          
OXFORD         CLEAR     24   3  40 VRB5      30.02F WCI  18          
$$

MEZ002-015-021-024-NHZ003-005-008-011-012-014-VTZ005-008-030400-
NORTHERN NEW ENGLAND
  
CITY           SKY/WX    TMP DP  RH WIND       PRES   REMARKS
PORTLAND ME    CLEAR     18  -2  41 W3        29.88R                  
BANGOR ME      CLEAR     14  -5  42 W10       29.72S WCI   1          
CONCORD NH     CLEAR     21  -5  31 NW12      29.93S WCI   9          
MANCHESTER NH  CLEAR     24  -5  27 W8        29.92F WCI  15          
NASHUA NH      CLEAR     22   0  38 VRB3      29.95F                  
PORTSMOUTH NH  CLEAR     22  -7  27 W9        29.90F WCI  12          
JAFFREY NH     CLEAR     18   0  45 VRB5      29.91F WCI  11          
KEENE NH       CLEAR     17   4  56 CALM      29.97F                  
BURLINGTON VT  CLOUDY    19   1  45 SE3       29.99F                  
MT. WASHINGTON NOT AVBL                                               
$$

NYZ052-076-030400-
EASTERN NEW YORK
  
CITY           SKY/WX    TMP DP  RH WIND       PRES   REMARKS
ALBANY         PTCLDY    19   6  57 CALM      30.06F                  
NEW YORK CITY  PTCLDY    32   1  26 W9        30.10S WCI  24          
$$
 
ANZALL-030400-
MARINE OBSERVATIONS
  
STATION/POSITION TIME  TEMP    WIND        PRES    VSBY  WAVE
                       AIR SEA DIR/SP/G                  HT/PER
                 (UTC) (F)     (DEG/KT/KT) (MB)    (MI)  (FT/S)
BOSTON BUOY      NOT AVBL
BUZZARDS BAY     NOT AVBL
NANTUCKET SOUND  NOT AVBL
MASS BAY-STELLWA NOT AVBL
ISLE OF SHOALS   NOT AVBL
S OF BLOCK IS    NOT AVBL
$$

......................KEY.........................
  SKY/WX - SKY CONDITION/PRESENT WEATHER
  TMP    - TEMPERATURE IN FAHRENHEIT
  DWPT   - DEWPOINT IN FAHRENHEIT
  RH     - RELATIVE HUMIDITY IN PERCENT
  WIND   - DIRECTION AND SPEED IN MPH
  PRES   - MEAN SEA LEVEL PRESSURE IN INCHES OF HG
  WCI    - WIND CHILL INDEX
  VSB    - VISIBILITY IN MILES
  HX     - HEAT INDEX
  TC     - TEMPERATURE IN CELSIUS
  VRB    - VARIABLE WIND DIRECTION
  N/A    - NOT AVAILABLE
  
      

Other recent Regional Weather Roundups

Wed Mar 3, 3:04am

Wed Mar 3, 2:04am

Wed Mar 3, 1:04am

Wed Mar 3, 12:04am

Tue Mar 2, 11:04pm

Tue Mar 2, 9:04pm

Tue Mar 2, 8:04pm

Tue Mar 2, 7:04pm

Tue Mar 2, 6:04pm

Tue Mar 2, 5:04pm

Tue Mar 2, 4:05pm

Tue Mar 2, 3:04pm

Tue Mar 2, 2:04pm

Tue Mar 2, 1:04pm

Tue Mar 2, 12:04pm

Tue Mar 2, 11:04am

Tue Mar 2, 10:05am

Tue Mar 2, 9:04am

Tue Mar 2, 8:04am

Tue Mar 2, 7:04am

Tue Mar 2, 6:05am

Tue Mar 2, 5:04am

Tue Mar 2, 4:04am

Tue Mar 2, 3:04am

Tue Mar 2, 2:04am

Tue Mar 2, 1:04am

Tue Mar 2, 12:04am

Mon Mar 1, 11:04pm

Mon Mar 1, 10:04pm

Mon Mar 1, 9:04pm

Mon Mar 1, 8:04pm

Mon Mar 1, 7:04pm

Mon Mar 1, 6:04pm

Mon Mar 1, 5:04pm

Mon Mar 1, 4:05pm

Mon Mar 1, 3:05pm

Mon Mar 1, 2:04pm

Mon Mar 1, 1:04pm

Mon Mar 1, 12:04pm

Mon Mar 1, 11:04am

Mon Mar 1, 10:04am

Mon Mar 1, 9:04am

Mon Mar 1, 8:05am

Mon Mar 1, 7:04am

Mon Mar 1, 6:04am

Mon Mar 1, 5:04am

Mon Mar 1, 4:05am

Mon Mar 1, 3:04am

Mon Mar 1, 2:04am

Mon Mar 1, 1:04am

Mon Mar 1, 12:05am

Sun Feb 28, 11:04pm

Sun Feb 28, 10:04pm

Sun Feb 28, 9:04pm

Sun Feb 28, 8:04pm

Sun Feb 28, 7:04pm

Sun Feb 28, 6:05pm

Sun Feb 28, 5:04pm

Sun Feb 28, 4:05pm

Sun Feb 28, 3:04pm

Sun Feb 28, 2:04pm

Sun Feb 28, 1:04pm

Sun Feb 28, 12:04pm

Sun Feb 28, 11:04am

Sun Feb 28, 10:04am

Sun Feb 28, 9:04am

Sun Feb 28, 8:04am

Sun Feb 28, 7:04am

Sun Feb 28, 6:04am

Sun Feb 28, 5:04am

Sun Feb 28, 4:04am

Sun Feb 28, 3:04am

Sun Feb 28, 2:04am

Sun Feb 28, 1:04am

Sun Feb 28, 12:04am

Sat Feb 27, 11:04pm

Sat Feb 27, 10:04pm

Sat Feb 27, 9:04pm

Sat Feb 27, 8:04pm

Sat Feb 27, 7:04pm

Sat Feb 27, 6:04pm

Sat Feb 27, 5:04pm

Sat Feb 27, 4:04pm

Sat Feb 27, 3:05pm

Sat Feb 27, 2:05pm

Sat Feb 27, 1:04pm

Sat Feb 27, 12:04pm

Sat Feb 27, 11:04am

Sat Feb 27, 10:04am

Sat Feb 27, 9:05am

Sat Feb 27, 8:04am

Sat Feb 27, 7:04am

Sat Feb 27, 6:04am

Sat Feb 27, 5:04am

Sat Feb 27, 4:04am

Sat Feb 27, 3:04am

Sat Feb 27, 2:04am

Sat Feb 27, 1:04am

Sat Feb 27, 12:04am

Fri Feb 26, 11:04pm

Fri Feb 26, 10:04pm

Fri Feb 26, 9:04pm

Fri Feb 26, 8:04pm

Fri Feb 26, 7:04pm

Fri Feb 26, 6:04pm

Fri Feb 26, 5:04pm

Fri Feb 26, 4:04pm

Fri Feb 26, 3:04pm

Fri Feb 26, 2:04pm

Fri Feb 26, 1:04pm

Fri Feb 26, 12:04pm

Fri Feb 26, 11:04am

Fri Feb 26, 10:04am

Fri Feb 26, 9:04am

Fri Feb 26, 8:04am

Fri Feb 26, 7:04am

Fri Feb 26, 6:04am

Fri Feb 26, 5:04am

Fri Feb 26, 4:04am

Fri Feb 26, 3:04am

Fri Feb 26, 2:04am

Fri Feb 26, 1:04am

Fri Feb 26, 12:04am

Thu Feb 25, 11:04pm

Thu Feb 25, 10:04pm

Thu Feb 25, 9:04pm

Thu Feb 25, 8:05pm

Thu Feb 25, 7:05pm

Thu Feb 25, 6:04pm

Thu Feb 25, 5:04pm

Thu Feb 25, 4:05pm

Thu Feb 25, 3:05pm

Thu Feb 25, 2:04pm

Thu Feb 25, 1:04pm

Thu Feb 25, 12:05pm

Thu Feb 25, 11:04am

Thu Feb 25, 10:04am

Thu Feb 25, 9:04am

Thu Feb 25, 8:04am

Thu Feb 25, 7:04am

Thu Feb 25, 6:04am

Thu Feb 25, 5:04am

Thu Feb 25, 4:04am

Thu Feb 25, 3:04am

Thu Feb 25, 2:04am

Thu Feb 25, 1:04am

Thu Feb 25, 12:04am

Wed Feb 24, 11:04pm

Wed Feb 24, 10:05pm

Wed Feb 24, 9:04pm

Wed Feb 24, 8:04pm

Wed Feb 24, 7:04pm

Wed Feb 24, 6:04pm

Wed Feb 24, 5:04pm

Wed Feb 24, 4:04pm

Wed Feb 24, 3:04pm

Wed Feb 24, 2:05pm

Wed Feb 24, 1:05pm

Wed Feb 24, 12:05pm

Wed Feb 24, 11:04am

Wed Feb 24, 10:04am

Wed Feb 24, 9:04am

Wed Feb 24, 8:04am

Wed Feb 24, 7:04am

Wed Feb 24, 6:04am

Wed Feb 24, 5:04am

Wed Feb 24, 4:04am

Meta data:

ID: 7176eb07-de32-428a-8cdf-3a8c0e0e1fdc
Link: https://api.weather.gov/products/7176eb07-de32-428a-8cdf-3a8c0e0e1fdc